When you browse on this site, cookies collect data to enhance your experience and personalize the content and advertising you see.
Visit our Privacy Policy to learn more. By continuing to use the site, you agree to this use of cookies and data.
  • In Hungary
  • List of Countries
  • For 7 days
  • Water Temperature
  • Satellite Maps
  • Weather Map
  • News
  • Weather Widgets
  • user-avatar
    Login

    Hourly Weather Tatarskoe Bulyarovo

    Today, 24 January, Thursday

    Time Temperature Precipitation Wind Pressure Humidity
    00:00 -26°C° 0 mm 3 mps 755 mmHg 97%
    01:00 -26°C° 0 mm 3 mps 755 mmHg 97%
    02:00 -26°C° 0 mm 3 mps 756 mmHg 97%
    03:00 -26°C° 0 mm 3 mps 756 mmHg 97%
    04:00 -25°C° 0 mm 2 mps 756 mmHg 98%
    05:00 -27°C° 0 mm 3 mps 756 mmHg 98%
    06:00 -27°C° 0 mm 3 mps 757 mmHg 98%
    07:00 -27°C° 0 mm 3 mps 757 mmHg 98%
    08:00 -27°C° 0 mm 3 mps 757 mmHg 98%
    09:00 -27°C° 0 mm 3 mps 757 mmHg 97%
    10:00 -26°C° 0 mm 2 mps 757 mmHg 97%
    11:00 -25°C° 0 mm 3 mps 757 mmHg 96%
    12:00 -24°C° 0 mm 3 mps 758 mmHg 94%
    13:00 -22°C° 0 mm 3 mps 758 mmHg 93%
    14:00 -22°C° 0 mm 3 mps 757 mmHg 92%
    15:00 -22°C° 0 mm 3 mps 757 mmHg 92%
    16:00 -22°C° 0 mm 3 mps 757 mmHg 91%
    17:00 -23°C° 0 mm 4 mps 756 mmHg 91%
    18:00 -23°C° 0 mm 4 mps 756 mmHg 90%
    19:00 -22°C° 0 mm 4 mps 755 mmHg 89%
    20:00 -22°C° 0.2 mm 5 mps 754 mmHg 90%
    21:00 -22°C° 0.2 mm 6 mps 753 mmHg 91%
    22:00 -21°C° 0.2 mm 6 mps 752 mmHg 93%
    23:00 -20°C° 0.4 mm 7 mps 752 mmHg 92%

    Tomorrow, 25 January, Friday

    Time Temperature Precipitation Wind Pressure Humidity
    00:00 -19°C° 0.4 mm 7 mps 751 mmHg 92%
    01:00 -18°C° 0.4 mm 7 mps 750 mmHg 91%
    02:00 -18°C° 0.3 mm 7 mps 749 mmHg 91%
    03:00 -16°C° 0.3 mm 6 mps 748 mmHg 91%
    04:00 -16°C° 0.3 mm 6 mps 747 mmHg 91%
    05:00 -15°C° 0.2 mm 5 mps 746 mmHg 92%
    06:00 -15°C° 0.2 mm 5 mps 746 mmHg 92%
    07:00 -14°C° 0.2 mm 4 mps 745 mmHg 93%
    08:00 -14°C° 0.3 mm 4 mps 745 mmHg 93%
    09:00 -14°C° 0.3 mm 4 mps 745 mmHg 93%
    10:00 -14°C° 0.3 mm 4 mps 744 mmHg 94%
    11:00 -14°C° 0.1 mm 4 mps 745 mmHg 92%
    12:00 -15°C° 0.1 mm 5 mps 745 mmHg 91%
    13:00 -15°C° 0.1 mm 5 mps 745 mmHg 89%
    14:00 -17°C° 0 mm 5 mps 746 mmHg 90%
    15:00 -18°C° 0 mm 5 mps 746 mmHg 90%
    16:00 -19°C° 0 mm 5 mps 747 mmHg 91%
    17:00 -20°C° 0 mm 5 mps 748 mmHg 92%
    18:00 -22°C° 0 mm 5 mps 749 mmHg 93%
    19:00 -24°C° 0 mm 5 mps 750 mmHg 94%
    20:00 -25°C° 0 mm 5 mps 751 mmHg 94%
    21:00 -26°C° 0 mm 5 mps 752 mmHg 95%
    22:00 -26°C° 0 mm 4 mps 752 mmHg 96%
    23:00 -26°C° 0 mm 4 mps 753 mmHg 97%

    Day after tomorrow, 26 January, Saturday

    Time Temperature Precipitation Wind Pressure Humidity
    00:00 -27°C° 0 mm 4 mps 753 mmHg 97%
    01:00 -29°C° 0 mm 4 mps 754 mmHg 97%
    02:00 -29°C° 0 mm 4 mps 755 mmHg 97%
    03:00 -27°C° 0 mm 3 mps 755 mmHg 98%
    04:00 -29°C° 0 mm 3 mps 756 mmHg 98%
    05:00 -29°C° 0 mm 3 mps 756 mmHg 98%
    06:00 -29°C° 0 mm 3 mps 757 mmHg 98%
    07:00 -29°C° 0 mm 3 mps 757 mmHg 99%
    08:00 -29°C° 0 mm 3 mps 757 mmHg 98%
    09:00 -27°C° 0 mm 2 mps 758 mmHg 98%
    10:00 -26°C° 0 mm 2 mps 758 mmHg 98%
    11:00 -25°C° 0 mm 2 mps 759 mmHg 97%
    12:00 -24°C° 0 mm 2 mps 759 mmHg 96%
    13:00 -21°C° 0 mm 2 mps 759 mmHg 95%
    14:00 -23°C° 0 mm 2 mps 759 mmHg 94%
    15:00 -20°C° 0 mm 1 mps 759 mmHg 94%
    16:00 -20°C° 0 mm 1 mps 760 mmHg 94%
    17:00 -21°C° 0 mm 1 mps 760 mmHg 93%
    18:00 -21°C° 0 mm 1 mps 760 mmHg 92%
    19:00 -21°C° 0 mm 1 mps 760 mmHg 91%
    20:00 -21°C° 0 mm 1 mps 760 mmHg 90%
    21:00 -21°C° 0 mm 1 mps 760 mmHg 89%
    22:00 -22°C° 0 mm 1 mps 760 mmHg 87%
    23:00 -25°C° 0 mm 2 mps 760 mmHg 87%

    27 January, Sunday

    Time Temperature Precipitation Wind Pressure Humidity
    00:00 -25°C° 0 mm 2 mps 760 mmHg 86%
    01:00 -25°C° 0 mm 2 mps 760 mmHg 86%
    02:00 -25°C° 0 mm 3 mps 759 mmHg 85%
    03:00 -25°C° 0 mm 3 mps 759 mmHg 85%
    04:00 -25°C° 0 mm 3 mps 759 mmHg 85%
    05:00 -26°C° 0 mm 4 mps 759 mmHg 84%
    06:00 -25°C° 0 mm 4 mps 758 mmHg 83%
    07:00 -26°C° 0 mm 5 mps 758 mmHg 82%
    08:00 -26°C° 0 mm 5 mps 758 mmHg 81%
    09:00 -25°C° 0 mm 5 mps 757 mmHg 79%
    10:00 -25°C° 0 mm 5 mps 757 mmHg 77%
    11:00 -22°C° 0 mm 5 mps 757 mmHg 76%
    12:00 -22°C° 0 mm 6 mps 756 mmHg 75%
    13:00 -20°C° 0 mm 6 mps 756 mmHg 73%
    14:00 -20°C° 0 mm 6 mps 755 mmHg 75%
    15:00 -18°C° 0 mm 6 mps 755 mmHg 77%
    16:00 -17°C° 0 mm 6 mps 754 mmHg 78%
    17:00 -17°C° 0 mm 6 mps 754 mmHg 79%
    18:00 -16°C° 0 mm 6 mps 754 mmHg 79%
    19:00 -16°C° 0 mm 6 mps 754 mmHg 80%
    20:00 -16°C° 0 mm 6 mps 753 mmHg 79%
    21:00 -16°C° 0 mm 6 mps 753 mmHg 79%
    22:00 -16°C° 0 mm 6 mps 753 mmHg 79%
    23:00 -17°C° 0 mm 6 mps 753 mmHg 79%

    28 January, Monday

    Time Temperature Precipitation Wind Pressure Humidity
    00:00 -17°C° 0 mm 6 mps 752 mmHg 78%
    01:00 -17°C° 0 mm 6 mps 752 mmHg 78%
    02:00 -18°C° 0 mm 6 mps 752 mmHg 78%
    03:00 -18°C° 0 mm 5 mps 752 mmHg 79%
    04:00 -18°C° 0 mm 5 mps 751 mmHg 79%
    05:00 -18°C° 0 mm 5 mps 751 mmHg 79%
    06:00 -18°C° 0 mm 5 mps 750 mmHg 79%
    07:00 -18°C° 0 mm 5 mps 750 mmHg 79%
    08:00 -18°C° 0 mm 5 mps 750 mmHg 79%
    09:00 -18°C° 0 mm 5 mps 749 mmHg 79%
    10:00 -18°C° 0 mm 5 mps 749 mmHg 78%
    11:00 -17°C° 0 mm 5 mps 749 mmHg 78%
    12:00 -15°C° 0 mm 5 mps 748 mmHg 78%
    13:00 -13°C° 0 mm 5 mps 748 mmHg 77%
    14:00 -14°C° 0 mm 5 mps 748 mmHg 79%
    15:00 -14°C° 0 mm 5 mps 747 mmHg 80%
    16:00 -14°C° 0 mm 4 mps 746 mmHg 82%
    17:00 -14°C° 0 mm 4 mps 746 mmHg 83%
    18:00 -12°C° 0 mm 4 mps 746 mmHg 85%
    19:00 -12°C° 0 mm 4 mps 745 mmHg 86%
    20:00 -12°C° 0.3 mm 4 mps 745 mmHg 88%
    21:00 -11°C° 0.3 mm 4 mps 745 mmHg 91%
    22:00 -10°C° 0.3 mm 4 mps 745 mmHg 93%
    23:00 -10°C° 0.4 mm 4 mps 745 mmHg 93%

    29 January, Tuesday

    Time Temperature Precipitation Wind Pressure Humidity
    00:00 -10°C° 0.4 mm 4 mps 744 mmHg 94%
    01:00 -11°C° 0.4 mm 5 mps 744 mmHg 94%
    02:00 -11°C° 0.5 mm 4 mps 744 mmHg 94%
    03:00 -11°C° 0.5 mm 4 mps 744 mmHg 94%
    04:00 -12°C° 0.5 mm 4 mps 744 mmHg 95%
    05:00 -12°C° 0.3 mm 3 mps 743 mmHg 95%
    06:00 -12°C° 0.3 mm 3 mps 743 mmHg 95%
    07:00 -13°C° 0.3 mm 3 mps 743 mmHg 95%
    08:00 -12°C° 0 mm 2 mps 743 mmHg 95%
    09:00 -13°C° 0 mm 2 mps 743 mmHg 95%
    10:00 -13°C° 0 mm 2 mps 744 mmHg 95%
    11:00 -12°C° 0 mm 2 mps 744 mmHg 95%
    12:00 -10°C° 0 mm 1 mps 744 mmHg 94%
    13:00 -9°C° 0 mm 1 mps 744 mmHg 93%
    14:00 -9°C° 0 mm 1 mps 745 mmHg 94%
    15:00 -9°C° 0 mm 1 mps 745 mmHg 94%
    16:00 -10°C° 0 mm 1 mps 745 mmHg 95%
    17:00 -10°C° 0 mm 1 mps 746 mmHg 95%
    18:00 -11°C° 0 mm 1 mps 746 mmHg 95%
    19:00 -11°C° 0 mm 1 mps 746 mmHg 96%
    20:00 -12°C° 0 mm 0 mps 747 mmHg 96%
    21:00 -12°C° 0 mm 0 mps 747 mmHg 96%
    22:00 -13°C° 0 mm 0 mps 747 mmHg 97%
    23:00 -13°C° 0 mm 0 mps 748 mmHg 97%
    Show more